Flag for Poland Weather past 2 weeks in Lódz, Poland

Now
76 °F

Overcast.


Feels Like: 78 °F
Forecast: 55 / 65 °F
Wind: 3 mph from South

Location: Lodz

Current Time: Jul 8, 2015 at 3:02:33 AM

Latest Report: Jul 8, 2015 at 2:00 AM


Visibility: 13 mi

Pressure: 29.64 "Hg

Humidity: 45%

Dew point: 53 °F

Location of LódzLocation

Historic Weather in Lódz — Graph

°F

Lódz temperature yesterday

Maximum temperature yesterday: 87 °F (at 6:00 PM)
Minimum temperature yesterday: 51 °F (at 4:00 AM)
Average temperature yesterday: 72 °F

Past Weeks' High & Low Weather Summary

 TemperatureHumidityPressure
High94 °F (Jul 5, 4:00 PM)95% (Jun 27, 5:00 AM)30.40 "Hg (Jun 27, 5:00 AM)
Low43 °F (Jun 25, 5:00 AM)20% (Jul 5, 4:00 PM)29.68 "Hg (Jul 8, 1:00 AM)
Average66 °F63%30.11 "Hg
* Reported Jun 23 1:00 AM — Jul 8 1:00 AM, Lódz, Weather by CustomWeather, © 2015

Note: Actual official high and low records may vary slightly from our data, if they occured in-between our weather recording intervals... More about our weather records

Advertising

Lódz weather history for previous 24 hours

 ConditionsComfort  
Time TempWeatherWind HumidityBarometerVisibility
1:00 AM
Wed, Jul 8
74 °FPassing clouds.2 mph50%29.68 "Hg12 mi
12:00 AM72 °FPassing clouds.2 mph52%29.71 "Hg12 mi
11:00 PM
Tue, Jul 7
71 °FPassing clouds.2 mph52%29.75 "Hg12 mi
10:00 PM71 °FPassing clouds.2 mph52%29.78 "Hg12 mi
9:00 PM76 °FPassing clouds.1 mph50%29.79 "Hg12 mi
8:00 PM84 °FPassing clouds.1 mph33%29.81 "Hg12 mi
7:00 PM86 °FPassing clouds.2 mph28%29.83 "Hg12 mi
6:00 PM87 °FPassing clouds.5 mph27%29.85 "Hg12 mi
5:00 PM86 °FPassing clouds.3 mph26%29.88 "Hg12 mi
4:00 PM85 °FPassing clouds.5 mph27%29.90 "Hg12 mi
3:00 PM84 °FSunny.5 mph26%29.93 "Hg12 mi
2:00 PM82 °FSunny.3 mph28%29.95 "Hg12 mi
1:00 PM81 °FPassing clouds.3 mph31%29.98 "Hg12 mi
12:00 PM80 °FPassing clouds.3 mph33%30.00 "Hg12 mi
11:00 AM78 °FPassing clouds.6 mph37%30.02 "Hg12 mi
10:00 AM76 °FPassing clouds.5 mph40%30.03 "Hg12 mi
9:00 AM73 °FSunny.3 mph46%30.05 "Hg12 mi
8:00 AM69 °FSunny.1 mph59%30.06 "Hg12 mi
7:00 AM62 °FSunny.1 mph76%30.08 "Hg12 mi
6:00 AM56 °FSunny.1 mph89%30.09 "Hg11 mi
4:00 AM51 °FClear.1 mph91%30.10 "Hg6 mi
3:00 AM53 °FClear.1 mph91%30.10 "Hg8 mi
Weather by CustomWeather, © 2015

See weather overviewHow to use our weather pages